sat.trackr.live / text

‹ back to catalog

STARLINK-35000

NORAD 65278 · 2025-184F

PAYLOAD ACTIVE UNKNOWN

§ Identity

Operator
Country
US
Launch date
2025-08-22
Launch site
AFWTR
Launch vehicle
Mass (kg)
RCS (m²)

Purposes: comms

External: N2YO · Heavens-Above · Gunter

§ Orbital elements

Epoch: 2026-09-20T10:04:43.514112Z

Period
93.91 min
Inclination
97.2872°
Eccentricity
0.0000679
Mean motion
15.33452194 rev/d
Perigee alt
465.1 km
Apogee alt
466.0 km
Semi-major
6,843.7 km
B*
4.7863e-4
RAAN
311.4082°
Arg perigee
87.6715°
Mean anomaly
272.4606°
Rev number
6,071

§ Raw data

STARLINK-350001 65278U 25184F   26263.41994808  .00015412  00000+0  47863-3 0  99932 65278  97.2872 311.4082 0000679  87.6715 272.4606 15.33452194 60718

JSON: /api/v1/satellites/65278 · /tle

For live sub-satellite position, see the globe view (requires WebGL).

§ Visibility from observer

Set your observer location to see the next 7 days of passes ≥ 10°. The values pass through the URL so the page stays shareable.

No JS? Fill the form by hand. The geolocation button needs JavaScript.